TimeCDT,TemperatureF,Dew PointF,Humidity,Sea Level PressureIn,VisibilityMPH,Wind Direction,Wind SpeedMPH,Gust SpeedMPH,PrecipitationIn,Events,Conditions,WindDirDegrees,DateUTC
12:53 AM,69.1,64.0,84,30.03,10.0,South,6.9,-,N/A,,Mostly Cloudy,190,2012-10-12 05:53:00
1:19 AM,69.8,64.4,83,30.09,10.0,SSE,3.5,-,N/A,Thunderstorm,Mostly Cloudy,160,2012-10-12 06:19:00
1:36 AM,69.8,64.4,83,30.09,10.0,Calm,Calm,-,N/A,Thunderstorm,Overcast,0,2012-10-12 06:36:00
1:53 AM,69.1,64.9,87,30.02,10.0,NW,4.6,-,N/A,Thunderstorm,Overcast,320,2012-10-12 06:53:00
2:04 AM,66.2,62.6,88,30.08,9.0,Variable,4.6,-,0.00,Rain-Thunderstorm,Light Thunderstorms and Rain,0,2012-10-12 07:04:00
2:53 AM,61.0,60.1,97,30.04,10.0,NE,9.2,-,0.00,Thunderstorm,Overcast,50,2012-10-12 07:53:00
3:13 AM,62.6,60.8,94,30.10,10.0,North,-9999.0,-,N/A,,Unknown,0,2012-10-12 08:13:00
3:49 AM,62.6,60.8,94,30.09,10.0,East,6.9,-,N/A,,Overcast,100,2012-10-12 08:49:00
3:53 AM,63.0,61.0,93,30.03,10.0,ESE,5.8,-,N/A,,Overcast,110,2012-10-12 08:53:00
4:33 AM,62.6,60.8,94,30.10,10.0,Calm,Calm,-,N/A,,Scattered Clouds,0,2012-10-12 09:33:00
4:53 AM,59.0,57.2,94,30.11,10.0,NNW,10.4,-,N/A,,Scattered Clouds,340,2012-10-12 09:53:00
5:25 AM,55.4,48.2,77,30.13,10.0,NNE,6.9,-,N/A,,Mostly Cloudy,20,2012-10-12 10:25:00
5:53 AM,54.0,48.9,83,30.08,10.0,North,3.5,-,N/A,,Mostly Cloudy,10,2012-10-12 10:53:00
6:53 AM,52.0,42.1,69,30.13,10.0,North,10.4,-,N/A,,Overcast,360,2012-10-12 11:53:00
7:27 AM,51.8,39.2,62,30.19,10.0,NNW,9.2,-,N/A,,Overcast,340,2012-10-12 12:27:00
7:53 AM,51.1,39.9,66,30.15,10.0,North,8.1,-,N/A,,Overcast,350,2012-10-12 12:53:00
8:53 AM,52.0,39.9,63,30.17,10.0,North,8.1,-,N/A,,Overcast,350,2012-10-12 13:53:00
9:53 AM,52.0,39.0,61,30.18,10.0,North,8.1,-,N/A,,Overcast,10,2012-10-12 14:53:00
10:53 AM,53.1,39.0,59,30.21,10.0,North,5.8,-,N/A,,Overcast,350,2012-10-12 15:53:00
11:53 AM,53.6,41.0,62,30.22,10.0,NNE,3.5,-,N/A,,Overcast,20,2012-10-12 16:53:00
12:53 PM,55.0,42.1,62,30.18,10.0,North,5.8,-,N/A,,Overcast,360,2012-10-12 17:53:00
1:53 PM,57.0,42.1,57,30.13,10.0,NNE,5.8,-,N/A,,Overcast,20,2012-10-12 18:53:00
2:39 PM,57.2,44.6,63,30.10,10.0,ENE,9.2,-,N/A,,Overcast,70,2012-10-12 19:39:00
2:53 PM,57.0,44.1,62,30.09,10.0,ESE,5.8,-,N/A,,Overcast,110,2012-10-12 19:53:00
3:35 PM,57.2,44.6,63,30.15,10.0,WNW,4.6,-,0.00,Rain,Light Rain,290,2012-10-12 20:35:00
3:53 PM,57.9,45.0,62,30.08,10.0,NE,5.8,-,0.00,,Overcast,40,2012-10-12 20:53:00
4:24 PM,57.2,46.4,67,30.11,10.0,East,5.8,-,0.00,Rain,Light Rain,80,2012-10-12 21:24:00
4:53 PM,59.0,48.0,67,30.06,10.0,ENE,3.5,-,0.00,,Overcast,70,2012-10-12 21:53:00
5:12 PM,59.0,48.2,67,30.08,10.0,East,3.5,-,N/A,,Overcast,100,2012-10-12 22:12:00
5:53 PM,60.1,48.9,67,30.06,10.0,Calm,Calm,-,N/A,,Overcast,0,2012-10-12 22:53:00
6:45 PM,60.8,50.0,68,30.05,10.0,East,3.5,-,N/A,,Overcast,80,2012-10-12 23:45:00
6:53 PM,61.0,50.0,67,30.02,10.0,East,3.5,-,N/A,,Overcast,90,2012-10-12 23:53:00
7:53 PM,60.1,52.0,75,30.02,10.0,NE,4.6,-,0.00,Rain,Light Rain,40,2012-10-13 00:53:00
8:36 PM,59.0,55.4,88,30.06,10.0,Variable,4.6,23.0,0.00,,Overcast,0,2012-10-13 01:36:00
8:53 PM,59.0,55.4,88,30.06,10.0,Variable,3.5,-,N/A,,Overcast,0,2012-10-13 01:53:00
9:41 PM,60.8,57.2,88,30.05,5.0,SE,5.8,-,0.00,Rain,Light Rain,130,2012-10-13 02:41:00
9:53 PM,59.0,59.0,100,30.02,4.0,SSE,6.9,-,0.00,Rain,Light Rain,150,2012-10-13 02:53:00
10:06 PM,59.0,59.0,100,30.04,5.0,SE,5.8,-,0.00,,Mostly Cloudy,140,2012-10-13 03:06:00
10:14 PM,59.0,59.0,100,30.03,5.0,SE,5.8,-,0.00,,Mostly Cloudy,130,2012-10-13 03:14:00
10:21 PM,59.0,59.0,100,30.02,5.0,ESE,5.8,-,0.00,,Mostly Cloudy,120,2012-10-13 03:21:00
10:29 PM,59.0,59.0,100,30.01,5.0,ESE,5.8,-,0.00,,Partly Cloudy,120,2012-10-13 03:29:00
10:53 PM,60.1,60.1,100,29.97,6.0,SSE,8.1,-,0.00,,Clear,150,2012-10-13 03:53:00
11:53 PM,66.0,64.0,93,29.91,10.0,SSE,21.9,29.9,N/A,,Clear,160,2012-10-13 04:53:00